Temperature
24 25 25 25 25 25 24 24 24 24 23 22 21 23 28 30 30 29 29 29 29 29 28 28 27 26 25 25 24 23 22 21 20 19 19 19 19 19 18 18 18 18 18 18
25 25 26 25 24 23 23 22 23 23 23 21 21 21 25 28 29 30 30 30 30 29 28 26 26 25 24 24 24 23 22 21 20 19 19 18 19 18 18 18 18 18 18 17
24 25 26 25 24 23 22 21 21 20 20 21 20 21 23 26 29 29 29 30 30 29 27 25 24 24 23 23 22 22 22 21 20 18 18 18 18 18 18 18 18 17 17 17
25 27 26 25 25 24 22 22 21 19 18 18 18 17 20 22 24 28 29 29 29 29 27 25 24 23 22 22 21 21 21 20 19 18 18 18 17 18 18 17 17 17 17 17
26 27 26 25 25 25 23 22 21 20 19 18 18 17 19 22 23 26 28 29 29 28 26 24 23 23 22 21 21 21 20 19 19 18 18 17 17 17 17 17 17 17 17 17
26 27 27 26 26 26 25 23 22 21 20 19 20 19 20 21 23 25 27 28 28 27 26 24 23 22 21 21 20 20 20 19 19 18 17 17 17 17 17 17 17 16 17 16
26 27 27 26 25 25 25 22 20 19 19 20 23 21 21 22 24 25 26 26 27 26 25 23 22 21 20 21 21 20 19 19 19 18 18 17 17 17 17 17 17 16 16 16
23 24 25 24 22 22 24 23 20 19 19 20 21 22 24 24 25 25 26 25 25 25 24 22 21 21 20 21 21 20 19 19 19 18 18 18 18 17 17 17 17 16 16 15
22 22 25 24 23 22 23 23 24 22 21 21 22 24 25 25 25 25 25 25 25 24 23 22 22 21 20 21 20 20 19 19 18 18 18 18 18 17 17 17 17 16 16 15
22 21 22 24 24 24 24 23 22 20 19 20 21 22 21 23 24 25 24 24 23 23 23 22 22 21 21 21 20 20 19 19 19 18 18 18 18 17 17 17 16 16 16 15
22 20 20 22 22 20 20 19 19 18 19 18 17 17 18 17 19 22 23 23 23 23 23 22 23 23 22 21 20 20 19 19 19 18 18 18 18 17 17 16 16 16 15 15
21 19 19 20 19 17 18 19 19 17 18 19 18 19 18 17 17 17 20 22 23 23 23 23 23 23 23 22 21 20 20 19 19 19 18 18 17 17 17 16 16 15 15 15
19 18 16 17 17 14 13 16 20 20 20 19 19 20 20 19 17 17 18 20 22 23 23 23 23 23 23 22 22 21 20 20 19 19 19 18 18 17 17 16 16 15 15 15
19 18 17 15 15 14 14 16 19 20 19 19 18 18 18 18 18 18 19 21 21 22 23 23 23 23 22 22 22 21 21 20 20 19 19 18 18 18 17 17 16 16 15 15
19 18 18 18 19 18 17 17 18 17 17 16 15 16 16 17 18 19 21 22 22 22 22 23 23 23 22 22 21 21 21 21 20 19 18 18 18 18 17 17 16 16 15 15
19 18 18 17 19 19 16 15 15 15 15 15 14 14 15 16 17 18 20 21 22 22 22 22 22 22 22 22 21 21 20 20 20 19 18 18 17 17 17 17 16 16 16 15
18 17 16 16 18 18 13 10 11 12 13 13 12 12 14 15 15 16 18 19 20 20 20 20 20 20 20 20 20 20 20 19 19 19 18 18 17 17 17 16 16 16 16 16
18 17 16 15 15 14 9 9 10 10 11 11 11 12 13 13 13 15 17 17 18 18 18 19 19 19 19 19 19 19 19 18 18 18 17 17 16 16 16 16 15 15 15 15
18 17 15 14 13 11 8 9 9 9 10 11 10 11 12 13 15 16 16 16 16 17 17 17 17 17 17 18 18 17 17 16 16 15 15 15 15 15 15 15 15 15 15 15
18 17 15 14 13 11 9 11 10 10 10 11 10 11 12 13 14 15 16 16 16 16 16 16 16 16 16 16 16 16 15 15 14 14 13 13 13 13 14 14 14 14 14 14
15 15 14 14 13 11 11 12 12 10 9 9 10 11 12 13 14 15 16 17 16 16 16 16 15 15 15 15 15 14 14 13 13 12 12 12 12 13 13 13 13 13 13 13
14 13 13 13 12 11 12 12 11 10 9 9 10 10 11 12 13 14 16 17 17 16 16 15 15 15 15 15 14 13 13 13 12 12 12 12 11 12 12 12 12 12 12 12
14 13 13 13 12 13 13 12 11 10 10 10 10 10 11 12 13 14 16 17 17 16 16 15 15 15 15 14 14 14 13 13 13 12 12 11 11 11 11 11 11 11 11 11
14 14 14 13 14 13 12 11 10 10 10 10 9 10 11 12 13 15 16 17 17 17 16 15 16 15 15 15 14 14 13 13 13 13 12 12 11 11 11 11 11 11 11 12
14 14 13 13 13 12 11 10 9 9 9 10 10 11 11 12 14 15 16 17 17 17 16 16 16 15 15 15 15 14 14 13 14 13 13 12 12 11 11 11 11 11 11 11
14 13 13 12 12 11 10 10 10 10 10 10 10 11 12 13 15 16 16 17 17 17 17 16 15 15 16 15 15 14 14 13 13 13 13 12 12 11 11 11 11 11 11 11
Wind_Speed
2 6 7 5 5 7 8 9 10 8 10 11 14 21 15 10 7 7 8 9 9 9 11 10 9 6 5 7 8 10 11 8 6 5 3 3 3 4 3 3 4 5 3 4
6 7 3 2 3 6 9 11 12 10 8 7 12 20 23 17 11 9 11 11 11 11 12 12 9 6 4 5 5 6 9 8 6 5 4 3 3 4 5 4 3 4 5 6
9 7 1 4 7 8 9 9 8 7 10 10 12 15 20 23 17 11 11 9 6 8 17 16 11 9 7 8 6 6 9 8 4 4 3 3 3 4 4 5 5 5 6 6
8 9 7 10 12 11 11 6 7 5 2 2 2 6 13 21 22 10 8 9 8 5 14 16 12 10 9 9 8 10 10 8 6 6 5 5 5 4 5 5 5 7 7 5
10 7 8 12 10 7 7 6 8 8 6 6 7 6 8 13 15 11 5 6 7 8 13 16 12 11 11 10 8 9 10 8 7 6 5 4 3 3 2 4 6 6 6 6
14 13 9 8 8 5 5 5 6 7 6 7 12 12 6 4 6 6 8 8 4 11 11 14 12 12 11 9 8 9 9 8 6 5 5 5 5 5 4 5 5 4 3 4
16 10 3 2 9 6 7 6 3 4 6 6 5 8 7 7 4 3 5 6 5 8 12 14 13 12 10 9 8 8 8 8 7 6 6 6 6 6 7 7 6 5 3 3
15 12 4 4 8 12 9 10 7 4 4 3 3 7 6 10 8 5 3 3 6 9 12 14 11 11 9 9 9 8 8 8 8 7 8 8 7 3 1 3 5 4 3 2
13 15 14 10 6 10 12 10 10 11 13 12 7 8 6 8 7 6 6 8 10 11 13 14 13 12 11 10 9 8 8 8 8 8 6 4 4 5 3 3 5 4 3 2
15 20 17 19 16 12 8 6 4 3 4 5 5 4 8 4 2 7 8 9 9 8 8 10 12 14 13 11 10 9 9 9 8 7 5 3 2 4 3 2 5 5 4 5
16 13 16 16 12 11 8 4 3 4 4 1 3 2 5 13 17 10 10 9 8 7 6 4 4 8 12 13 12 10 9 9 9 8 6 6 4 2 5 2 3 5 4 5
11 10 14 18 10 15 11 6 2 1 4 2 2 2 9 11 17 22 16 6 5 4 2 0 2 3 7 11 13 12 11 10 9 8 7 8 7 6 5 6 6 6 6 6
11 8 11 11 9 14 10 15 11 6 5 4 3 2 15 17 17 19 21 17 9 4 2 4 3 2 3 7 10 12 12 11 10 8 8 8 8 8 7 7 8 7 6 6
7 11 10 9 8 5 9 15 14 9 6 6 7 11 17 17 14 14 17 15 11 9 7 3 2 3 3 4 6 7 9 10 11 10 8 7 8 8 8 7 7 8 7 7
9 12 14 15 13 10 8 8 12 14 11 7 9 12 19 22 21 18 15 11 7 6 6 4 1 1 3 4 5 5 5 7 10 10 8 7 7 6 8 7 7 7 7 7
10 12 16 18 16 11 11 19 15 14 15 12 12 10 18 22 21 17 15 11 5 3 3 4 4 3 1 1 3 3 3 3 5 8 8 7 6 4 5 6 7 7 7 6
9 13 13 13 16 9 9 15 13 11 13 12 11 13 22 25 21 17 16 15 12 11 11 10 10 9 10 10 8 6 2 2 2 4 4 5 4 3 3 4 5 7 7 7
10 12 7 9 12 4 6 8 11 8 8 15 16 18 21 23 17 13 16 16 16 15 13 12 11 11 11 10 9 9 9 9 9 8 7 4 1 1 3 5 6 5 5 6
10 9 7 6 7 5 7 10 10 6 4 13 18 21 23 23 12 12 17 15 14 13 12 11 11 11 11 11 10 11 11 10 9 9 9 8 8 6 6 5 6 6 6 5
14 12 7 7 6 5 4 11 11 5 3 12 18 20 21 23 16 15 16 11 10 10 9 9 9 9 9 10 10 10 9 8 8 8 8 8 8 8 8 7 6 5 5 5
14 10 9 8 5 4 6 11 9 4 6 16 18 18 19 19 16 17 15 8 6 6 7 8 8 7 7 8 9 9 8 7 6 6 6 6 6 6 6 6 5 5 4 4
9 8 8 8 7 4 10 9 7 6 10 13 16 16 18 19 20 20 16 7 6 6 6 7 6 5 7 7 7 7 6 4 4 4 5 4 5 6 5 5 5 5 4 4
7 6 5 5 5 6 8 6 6 9 12 13 14 17 18 18 17 19 16 7 5 4 5 4 3 4 6 6 6 5 3 3 3 5 4 4 4 5 4 4 4 4 4 4
5 5 5 5 4 8 7 9 12 13 14 15 15 17 17 17 17 16 14 7 3 5 5 1 0 4 4 3 4 5 4 4 3 4 3 4 5 5 5 5 6 6 7 6
3 4 4 4 6 9 9 13 14 16 17 17 17 16 15 16 17 14 11 8 3 5 3 1 3 3 1 3 5 5 5 7 3 4 4 5 5 4 4 5 5 5 6 5
1 2 3 3 4 5 10 11 14 15 16 17 18 18 16 16 15 12 10 8 4 2 3 3 2 3 4 4 5 6 4 6 6 4 5 4 3 3 2 2 4 7 7 7
Wind_Direction
277 264 258 277 302 298 291 288 289 308 3 360 330 309 290 266 242 222 229 237 208 189 179 149 134 135 145 155 158 149 151 150 136 142 173 176 165 139 136 128 165 183 224 230
267 257 282 352 307 288 287 284 284 301 338 339 316 313 310 290 261 233 229 228 210 190 152 130 131 133 183 144 115 125 129 126 132 148 167 168 176 183 172 174 192 189 220 233
280 292 320 239 247 256 265 275 284 299 331 341 338 314 309 302 280 241 225 233 241 190 154 144 147 150 149 118 116 96 103 104 119 146 150 168 193 224 172 179 194 209 228 237
269 260 255 259 260 255 267 258 249 249 286 309 104 293 292 300 300 272 219 213 216 220 149 141 144 142 138 127 129 124 121 137 168 178 187 188 186 195 193 185 188 201 211 222
291 292 275 275 278 257 253 203 211 226 226 251 212 236 266 280 289 302 288 238 187 141 130 135 141 141 130 126 133 131 138 151 167 182 182 191 209 208 182 153 185 197 199 207
274 267 261 285 301 267 254 229 223 223 224 248 228 214 256 246 288 324 351 1 73 123 127 130 125 117 118 126 128 127 138 144 156 177 185 196 220 223 198 176 184 183 193 218
320 304 225 286 292 270 237 236 257 244 222 257 203 197 226 207 245 316 353 350 10 123 129 123 121 125 134 138 136 138 145 147 161 183 204 213 217 225 212 183 177 177 174 195
325 327 13 360 329 312 271 238 231 258 258 317 292 244 216 185 190 196 179 120 107 116 123 131 139 141 148 147 148 155 153 157 169 194 208 209 184 196 247 134 143 149 142 159
321 312 320 311 276 275 282 266 259 261 270 271 235 230 158 154 171 163 157 140 135 139 143 149 152 153 158 157 161 164 161 163 177 206 203 187 167 178 176 153 127 129 140 150
317 314 311 309 295 275 298 330 307 296 282 274 313 2 12 5 143 146 119 100 108 123 143 157 162 162 165 166 171 175 178 176 185 205 177 142 178 157 109 42 136 149 174 166
316 310 308 307 326 338 330 335 334 315 278 276 343 332 350 5 349 4 92 100 94 91 98 118 176 172 168 167 171 177 189 186 178 188 168 154 194 164 147 183 152 150 183 167
342 321 308 307 17 21 344 346 53 235 296 290 259 111 64 32 4 354 354 9 89 98 89 226 229 206 179 173 176 183 194 194 176 180 172 175 178 169 185 188 176 182 198 181
339 316 317 323 5 25 349 321 331 338 316 311 319 26 39 30 10 342 327 323 333 336 270 218 187 210 215 187 184 188 193 188 173 180 183 179 182 185 195 198 179 187 197 186
304 302 305 300 305 297 280 294 315 324 304 309 359 358 12 8 353 324 309 308 314 316 316 332 129 187 216 218 205 206 198 181 173 180 191 194 202 187 185 193 181 183 198 198
333 314 318 312 302 281 283 342 29 38 31 34 12 7 0 348 336 321 311 305 291 290 299 310 292 199 183 210 217 210 205 192 176 174 187 199 224 196 185 185 175 190 203 205
329 319 321 314 309 299 46 32 35 41 35 36 29 14 345 337 335 340 343 345 343 351 6 19 27 34 24 158 166 153 169 191 170 171 186 193 220 213 184 186 182 197 201 209
328 330 331 321 318 297 61 19 17 34 33 29 24 351 342 347 350 353 3 15 29 45 50 45 42 41 45 48 51 62 54 111 127 151 171 176 191 216 215 225 216 205 199 202
343 338 333 324 342 55 63 10 3 2 26 27 5 352 349 344 325 1 20 25 36 44 44 43 46 44 50 54 55 52 43 39 37 34 28 29 49 283 277 272 266 247 231 217
3 349 336 338 342 73 25 356 342 325 318 21 359 346 346 340 335 11 16 29 28 31 34 37 40 44 40 38 42 53 55 49 40 31 31 32 32 20 3 340 313 299 289 281
8 11 7 355 357 43 8 337 326 264 246 4 347 339 342 345 359 353 350 25 31 22 26 38 37 39 49 46 43 48 47 46 37 29 33 35 39 35 23 6 358 347 337 319
1 6 11 359 20 85 9 349 351 30 321 322 324 329 337 341 336 327 334 14 44 33 23 48 47 34 46 63 61 50 42 41 37 33 39 39 29 28 27 1 357 358 354 341
8 2 5 1 16 16 7 356 5 323 306 311 318 324 328 328 327 328 332 3 43 47 40 49 55 45 41 47 69 71 42 30 50 47 40 44 55 36 19 8 5 6 10 16
26 15 347 347 343 344 352 1 345 322 317 320 319 317 321 325 326 325 327 345 60 58 69 57 63 66 66 54 44 62 43 349 72 62 53 42 67 74 27 7 360 359 8 16
14 -0 330 326 336 355 21 10 345 335 326 320 314 313 320 323 322 320 321 327 79 79 80 356 31 75 63 65 65 51 11 335 87 92 63 69 63 61 46 29 22 33 33 27
338 322 321 318 357 355 351 342 331 322 318 318 316 315 319 318 316 317 323 337 47 102 124 293 36 35 3 69 79 69 17 342 358 95 82 78 80 77 68 69 50 45 57 39
280 316 315 340 5 319 307 313 315 313 315 317 317 319 320 314 312 323 332 336 358 56 126 141 108 298 314 40 69 85 35 350 358 46 60 61 85 90 101 126 117 67 70 61
Height
1481 1480 1479 1477 1478 1481 1482 1484 1484 1482 1482 1487 1489 1480 1462 1457 1457 1459 1461 1462 1463 1467 1470 1474 1478 1483 1487 1490 1493 1495 1496 1499 1502 1504 1506 1507 1509 1510 1512 1513 1515 1516 1518 1520
1479 1479 1474 1477 1482 1486 1487 1489 1486 1483 1483 1490 1491 1483 1468 1458 1454 1455 1456 1457 1459 1462 1466 1470 1475 1480 1485 1488 1491 1493 1495 1496 1498 1501 1503 1504 1506 1508 1510 1511 1512 1514 1515 1517
1483 1477 1474 1478 1481 1485 1487 1491 1491 1492 1488 1486 1491 1487 1475 1460 1451 1449 1451 1453 1455 1457 1461 1467 1473 1478 1482 1485 1488 1491 1492 1493 1495 1498 1500 1502 1504 1506 1508 1508 1509 1511 1512 1513
1475 1470 1472 1475 1476 1478 1485 1482 1488 1491 1496 1500 1502 1507 1488 1474 1461 1447 1446 1449 1452 1455 1458 1464 1471 1476 1481 1484 1487 1489 1490 1491 1492 1495 1497 1499 1501 1503 1505 1506 1507 1507 1508 1509
1473 1468 1470 1472 1470 1470 1476 1477 1484 1488 1493 1499 1497 1506 1490 1476 1467 1453 1447 1447 1448 1452 1457 1464 1470 1476 1480 1483 1485 1487 1488 1489 1491 1493 1495 1497 1499 1501 1502 1503 1504 1504 1504 1505
1467 1464 1464 1466 1465 1466 1469 1475 1480 1484 1491 1500 1484 1494 1488 1475 1467 1458 1451 1448 1448 1452 1459 1465 1471 1476 1479 1482 1484 1486 1487 1489 1490 1492 1494 1495 1497 1498 1500 1501 1501 1502 1502 1502
1469 1461 1461 1466 1469 1466 1468 1480 1495 1499 1500 1491 1469 1479 1476 1462 1458 1456 1453 1452 1452 1455 1459 1466 1471 1475 1478 1480 1482 1485 1487 1488 1490 1491 1492 1493 1495 1496 1498 1498 1499 1499 1499 1499
1484 1479 1468 1471 1476 1478 1470 1474 1494 1505 1500 1490 1478 1474 1459 1451 1451 1451 1451 1451 1453 1457 1461 1466 1471 1475 1477 1479 1481 1484 1487 1488 1489 1490 1492 1493 1494 1495 1496 1497 1497 1497 1497 1497
1492 1486 1472 1471 1473 1474 1472 1468 1466 1478 1480 1483 1473 1460 1448 1447 1448 1449 1450 1450 1452 1456 1460 1465 1469 1473 1476 1478 1481 1483 1486 1487 1488 1489 1491 1492 1493 1493 1495 1495 1494 1494 1494 1494
1490 1493 1480 1471 1468 1464 1465 1468 1472 1483 1493 1488 1476 1470 1476 1462 1453 1449 1450 1453 1455 1458 1461 1464 1467 1470 1474 1476 1479 1482 1484 1485 1487 1488 1489 1490 1491 1492 1492 1492 1492 1491 1491 1492
1492 1495 1488 1478 1476 1480 1476 1479 1482 1485 1485 1497 1503 1499 1484 1481 1472 1460 1455 1458 1460 1462 1464 1466 1468 1469 1472 1474 1477 1479 1482 1484 1484 1485 1486 1487 1488 1489 1489 1489 1490 1489 1490 1491
1495 1497 1497 1487 1486 1486 1483 1480 1481 1494 1491 1486 1492 1491 1480 1478 1474 1474 1471 1465 1463 1463 1464 1465 1467 1469 1470 1472 1474 1476 1479 1481 1482 1482 1483 1484 1485 1485 1486 1486 1487 1487 1488 1489
1503 1503 1508 1500 1497 1500 1504 1492 1479 1478 1480 1482 1489 1487 1474 1477 1477 1478 1475 1470 1466 1464 1464 1464 1465 1466 1468 1469 1471 1472 1475 1477 1478 1479 1481 1481 1482 1482 1483 1484 1485 1486 1486 1487
1504 1502 1508 1515 1511 1509 1508 1495 1481 1479 1484 1485 1489 1490 1483 1484 1483 1480 1473 1468 1465 1463 1463 1463 1464 1465 1466 1468 1469 1471 1473 1474 1475 1476 1478 1479 1480 1480 1480 1482 1483 1483 1484 1485
1503 1503 1500 1496 1493 1494 1496 1492 1488 1490 1490 1497 1500 1496 1495 1491 1487 1478 1470 1464 1462 1462 1462 1462 1463 1464 1464 1465 1467 1468 1470 1472 1473 1474 1476 1477 1478 1479 1478 1478 1479 1480 1481 1482
1503 1504 1501 1498 1490 1488 1498 1504 1500 1499 1501 1502 1502 1504 1502 1495 1485 1476 1469 1463 1461 1461 1461 1462 1462 1463 1464 1464 1465 1466 1468 1470 1472 1473 1473 1473 1475 1476 1476 1476 1476 1477 1478 1479
1504 1505 1507 1504 1492 1486 1512 1526 1521 1517 1514 1512 1516 1516 1505 1496 1488 1481 1473 1466 1463 1462 1463 1464 1465 1464 1464 1464 1465 1467 1468 1470 1471 1471 1471 1471 1472 1473 1473 1473 1474 1474 1475 1476
1505 1505 1508 1508 1505 1512 1539 1535 1530 1525 1521 1521 1520 1515 1509 1501 1490 1483 1478 1473 1470 1469 1469 1469 1469 1468 1467 1467 1468 1468 1469 1469 1469 1469 1470 1470 1470 1470 1470 1470 1470 1471 1472 1472
1507 1508 1510 1513 1516 1526 1537 1533 1532 1530 1525 1524 1522 1516 1510 1500 1489 1485 1482 1480 1477 1476 1474 1474 1473 1472 1471 1471 1471 1470 1470 1469 1468 1468 1468 1467 1467 1466 1466 1466 1466 1467 1468 1469
1511 1511 1515 1517 1520 1532 1540 1532 1528 1528 1524 1524 1523 1518 1513 1505 1495 1492 1487 1485 1483 1480 1479 1478 1477 1476 1475 1474 1473 1472 1472 1470 1469 1468 1467 1466 1465 1464 1464 1463 1463 1463 1463 1464
1520 1519 1521 1521 1522 1533 1534 1530 1527 1530 1533 1527 1524 1520 1515 1510 1506 1498 1491 1488 1486 1484 1483 1481 1480 1479 1478 1477 1476 1474 1473 1471 1470 1468 1467 1466 1464 1463 1462 1461 1460 1459 1459 1460
1529 1529 1529 1528 1532 1538 1531 1529 1532 1534 1530 1527 1523 1519 1514 1509 1503 1497 1492 1489 1488 1487 1485 1484 1483 1482 1481 1480 1478 1476 1475 1473 1471 1469 1468 1466 1464 1462 1460 1459 1459 1459 1458 1459
1530 1534 1534 1535 1536 1532 1531 1531 1531 1530 1527 1524 1520 1516 1513 1507 1502 1497 1492 1490 1489 1488 1487 1486 1485 1484 1483 1481 1480 1478 1476 1474 1473 1471 1469 1468 1466 1463 1461 1461 1461 1461 1461 1461
1532 1533 1532 1531 1530 1530 1531 1531 1530 1528 1525 1521 1518 1514 1510 1506 1501 1497 1493 1490 1489 1488 1488 1487 1486 1485 1484 1483 1481 1479 1476 1475 1474 1472 1471 1469 1467 1465 1463 1463 1462 1462 1462 1462
1534 1532 1531 1530 1530 1531 1530 1530 1527 1524 1521 1518 1514 1511 1508 1504 1500 1497 1493 1490 1488 1488 1487 1487 1487 1486 1485 1484 1482 1479 1477 1475 1475 1474 1472 1470 1468 1467 1465 1465 1465 1464 1464 1464
1530 1532 1532 1532 1533 1533 1530 1527 1524 1521 1518 1514 1510 1506 1504 1502 1499 1496 1493 1490 1489 1488 1488 1487 1487 1486 1486 1485 1483 1479 1477 1476 1475 1474 1473 1472 1470 1469 1468 1467 1467 1466 1466 1465